This is the latest recevied weather packets stored in our database for station/object EA1CZ-10. If no packets are shown the sender has not sent any weather packets the latest 10 day(s).
| Time | Temp. | Humidity | Pressure | Rain* | Wind** | Luminosity | Snow |
|---|---|---|---|---|---|---|---|
| 1788426601 | 23.33° C | 51% | 1040.5 hPa | - | - | - | - |
| 1788424801 | 22.78° C | 52% | 1040.2 hPa | - | - | - | - |
| 1788423001 | 21.67° C | 54% | 1040.3 hPa | - | - | - | - |
| 1788421201 | 20.56° C | 55% | 1040.1 hPa | - | - | - | - |
| 1788419401 | 19.44° C | 56% | 1039.9 hPa | - | - | - | - |
| 1788417601 | 19.44° C | 56% | 1039.8 hPa | - | - | - | - |
| 1788415800 | 18.33° C | 57% | 1039.6 hPa | - | - | - | - |
| 1788414000 | 18.89° C | 57% | 1039.5 hPa | - | - | - | - |
| 1788412200 | 19.44° C | 57% | 1039.6 hPa | - | - | - | - |
| 1788410400 | 19.44° C | 58% | 1039.6 hPa | - | - | - | - |
| 1788408600 | 19.44° C | 58% | 1039.5 hPa | - | - | - | - |
| 1788406800 | 20° C | 59% | 1039.5 hPa | - | - | - | - |
| 1788405000 | 18.33° C | 60% | 1039.7 hPa | - | - | - | - |
| 1788403200 | 18.33° C | 61% | 1039.8 hPa | - | - | - | - |
| 1788401400 | 18.33° C | 61% | 1039.9 hPa | - | - | - | - |
| 1788399600 | 18.33° C | 61% | 1039.8 hPa | - | - | - | - |
| 1788397799 | 17.78° C | 62% | 1040 hPa | - | - | - | - |
| 1788395999 | 18.33° C | 62% | 1040.1 hPa | - | - | - | - |
| 1788394199 | 18.33° C | 62% | 1040 hPa | - | - | - | - |
| 1788392399 | 17.78° C | 63% | 1040.2 hPa | - | - | - | - |
| 1788390599 | 18.89° C | 62% | 1040.1 hPa | - | - | - | - |
| 1788388799 | 18.33° C | 62% | 1040.3 hPa | - | - | - | - |
| 1788386999 | 17.78° C | 63% | 1040.4 hPa | - | - | - | - |
| 1788385199 | 16.11° C | 64% | 1040.3 hPa | - | - | - | - |
| 1788383399 | 16.11° C | 63% | 1040.4 hPa | - | - | - | - |
* Rain since midnight (hover to see other rain measurements)
** Current wind speed in m/s (hover to see current wind gust speed)